• Join FlightAware (Why Join?)
  • Login
  • US Flag 
03:37AM EST


 

Airport Tracker/Info


-or-


 

Live Flight TrackerFlight Track Log ✈ N779NC ✈ 08-Jul-2013 ✈ KHSV - KATL

Flight Track Log - Related Links

Times and Time Zones

All times are in EDT time to prevent confusion due to time zone crossing. See the N779NC flight status page for this flight to view local times or setup timezone preferences in your user account.

Time Position Orientation Groundspeed Altitude Reporting Facility
EDT Latitude Longitude Course Direction KTS MPH feet Rate Location/Type
12:34PM 34.5556 -86.7258 150° Southeast 196 226 3,600  Level Memphis Center
12:35PM 34.5347 -86.6536 109° East 202 232 5,200 1,800 Climbing Memphis Center
12:36PM 34.5274 -86.4126 109° East  Level FlightAware Approximate
12:36PM 34.5300 -86.5681 94° East 226 260 7,300  Level Memphis Center
12:37PM 34.5019 -86.3235 109° East  Level FlightAware Approximate
12:37PM 34.5167 -86.4756 100° East 248 285 9,200  Level Memphis Center
12:38PM 34.4775 -86.2339 108° East  Level FlightAware Approximate
12:38PM 34.4925 -86.3600 104° East 282 325 11,800  Level Atlanta Center
12:39PM 34.4692 -86.2611 106° East 299 344 13,600 1,920 Climbing Atlanta Center
12:40PM 34.4439 -86.1572 106° East 304 350 15,700 1,740 Climbing Atlanta Center
12:41PM 34.4206 -86.0533 105° East 310 357 17,100 1,140 Climbing Atlanta Center
12:42PM 34.3892 -85.9367 108° East 331 381 18,000 840 Climbing Atlanta Center
12:43PM 34.3575 -85.8128 107° East 354 407 18,800 1,200 Climbing Atlanta Center
12:44PM 34.3281 -85.6814 105° East 373 429 20,500 1,080 Climbing Atlanta Center
12:45PM 34.2964 -85.5500 106° East 400 460 21,000 240 Climbing Atlanta Center
12:46PM 34.2647 -85.4111 105° East 418 481 21,000 -780 Level Atlanta Center
12:47PM 34.2264 -85.2775 109° East 423 487 19,500 -2,460 Descending Atlanta Center
12:48PM 34.1817 -85.1436 112° Southeast 423 487 16,100 -2,760 Descending Atlanta Center
12:49PM 34.1094 -85.0422 131° Southeast 396 456 14,000 -1,320 Descending Atlanta Center
12:50PM 34.0414 -84.9564 134° Southeast 371 427 13,500 -780 Descending Atlanta Center
12:51PM 33.9750 -84.8756 135° Southeast 344 396 12,500 -780 Descending Atlanta Center
12:52PM 33.9006 -84.7872 135° Southeast 359 413 12,000 -300 Descending Atlanta Center
12:53PM 33.8300 -84.7014 135° Southeast 366 421 12,000  Level Atlanta Center
12:54PM 33.7678 -84.6186 132° Southeast 345 397 12,100 -240 Climbing Atlanta Center
12:55PM 33.7306 -84.5308 117° Southeast 320 368 11,600 -1,200 Descending Atlanta Center
12:56PM 33.7289 -84.4283 91° East 298 343 9,700 -1,800 Descending Atlanta Center
12:57PM 33.7333 -84.3311 87° East 293 337 8,100 -1,620 Descending Atlanta Center
12:58PM 33.7333 -84.2167 90° East 281 323 6,100 -1,440 Descending Atlanta TRACON
12:59PM 33.7333 -84.1333 90° East 273 314 5,100 -600 Descending Atlanta TRACON
01:00PM 33.7333 -84.0500 90° East 266 306 5,000 -60 Descending Atlanta TRACON
01:01PM 33.7000 -83.9833 121° Southeast 212 244 5,000  Level Atlanta TRACON
01:02PM 33.6667 -84.0167 220° Southwest 196 226 5,000  Level Atlanta TRACON
01:03PM 33.6500 -84.0833 253° West 190 219 5,000  Level Atlanta TRACON
01:04PM 33.6500 -84.1333 270° West 192 221 5,100 -420 Climbing Atlanta TRACON
01:05PM 33.6500 -84.2000 270° West 188 216 4,300 -900 Descending Atlanta TRACON
01:06PM 33.6500 -84.2667 270° West 190 219 3,300 -960 Descending Atlanta TRACON
01:07PM 33.6500 -84.3333 270° West 171 197 2,300 -900 Descending Atlanta TRACON
01:08PM 33.6500 -84.3833 270° West 144 166 1,500 -840 Descending Atlanta TRACON
01:10PM 33.6284 -84.4167 North  Level FlightAware Approximate